Location: Chantarel
(45.1638°N, 1.7873°E)
Time: 06:36:09
(UTC+00:00)

Resurs 01 Rocket - Pass Details

Date: 03 March 2021
Orbit: 635 x 643 km, 98.0° (Epoch: 10 April)

Event Time Altitude Azimuth Distance (km) Brightness Sun altitude
Exits shadow 20:50:15 24° 332° (NNW) 1,342 3.7 -32.9°
Drops below altitude 10° 20:52:02 10° 339° (NNW) 2,033 4.7 -33.2°
Sets 20:54:17 0° 344° (NNW) 2,947 5.6 -33.5°
